[[{"header":{"parameterUnit":"m.s-1","parameterCategory":1,"la1":30.2991,"la2":30.254,"lo1":-89.0895,"lo2":-89.0444,"dy":0.0017,"dx":0.0017,"nx":28,"ny":28,"refTime":"2024-03-09T03:00:00:Z","depth":0,"parameterNumber":2,"parameterNumberName":"U-component_of_WINDS"},"data":[0,0,0,0,0,0,0,0,0,0,0,0,0,0,0,0,0,0,0,0,0,0,0,0,0,0,0,0,0,0,0,0,0,0,0,0,0,0,0,0,0,0,0,0,0,0,0,0,0,0,0,0,0,0,0,0,0,0,0.8001,0.8001,0,0.8074,0.8074,0.8075,0.8091,0.8091,0.809,0.809,0.8166,0.8169,0.8171,0,0,0,0,0,0,0,0,0,0,0,0,0,0.7878,0.788,0.8001,0.8001,0.8002,0.8073,0.8074,0.8075,0.8091,0.8091,0.809,0.8089,0.8165,0.8168,0.8172,0,0,0,0,0,0,0,0,0,0,0,0,0,0.7939,0.7881,0.8,0.8019,0.8021,0.8073,0.8075,0.8076,0.8091,0.8091,0.809,0.8089,0.8164,0.8168,0.8172,0.8211,0,0,0.8184,0.8185,0,0,0,0,0,0,0,0,0.7936,0.7944,0.8015,0.8018,0.802,0.8072,0.8059,0.8121,0.8092,0.8065,0.809,0.8089,0.8136,0.8142,0.8157,0.8215,0.8218,0.8184,0.8186,0.8188,0.8189,0,0,0,0,0,0,0,0.7931,0.7941,0.803,0.8016,0.8019,0.8025,0.8032,0.8071,0.8104,0.8067,0.8068,0.8077,0.8137,0.8154,0.8159,0.8219,0.8184,0.8187,0.819,0.8191,0.8315,0.8316,0,0,0,0,0,0,0.7924,0.7937,0.8027,0.8032,0.7975,0.8027,0.8036,0.8057,0.8104,0.811,0.8077,0.8077,0.8148,0.8155,0.8162,0.8213,0.8188,0.8191,0.8194,0.8314,0.8316,0.8317,0,0,0,0,0,0,0.7921,0.7931,0.8024,0.7985,0.7997,0.803,0.8053,0.8058,0.8075,0.8111,0.8118,0.8088,0.8147,0.8157,0.8199,0.8216,0.8193,0.8197,0.8313,0.8315,0.8316,0.8314,0,0,0,0,0,0,0.7917,0.793,0.7945,0.7985,0.7999,0.8059,0.8054,0.806,0.8081,0.8082,0.8123,0.8129,0.8147,0.8194,0.8203,0.8221,0.82,0.8312,0.8314,0.8316,0.8312,0.8315,0.8317,0,0,0,0,0,0.7913,0.7941,0.7945,0.7956,0.8018,0.806,0.8068,0.8088,0.8083,0.8098,0.8122,0.8128,0.8212,0.8198,0.8209,0.8227,0.8311,0.8313,0.8315,0.8311,0.8314,0.8317,0,0,0,0,0,0,0.7902,0.7947,0.7952,0.7994,0.8023,0.8063,0.8083,0.809,0.8122,0.8121,0.8145,0.8155,0.8196,0.8216,0.8199,0.8269,0.8262,0.8266,0.8255,0.8258,0.826,0.8255,0.8203,0,0,0,0,0,0.7905,0.7935,0.7972,0.8006,0.802,0.8049,0.8068,0.8081,0.8113,0.8125,0.8152,0.8183,0.8217,0.8238,0.8271,0.8315,0.8326,0.8334,0.8336,0.8338,0.8342,0.8368,0.8373,0.8324,0.8324,0.8324,0,0,0.7911,0.7939,0.7956,0.8005,0.8029,0.806,0.8059,0.8092,0.8117,0.813,0.8172,0.8193,0.823,0.8274,0.8294,0.8292,0.8358,0.8341,0.8342,0.8345,0.8371,0.8376,0.838,0.8326,0.8326,0.8325,0,0,0.7937,0.7961,0.7992,0.8016,0.8053,0.8072,0.808,0.8119,0.8133,0.8175,0.8187,0.8217,0.8274,0.83,0.832,0.8359,0.8366,0.8369,0.8381,0.8407,0.8411,0.8414,0.8429,0.8434,0.8372,0.8372,0.8372,0,0.794,0.7987,0.8007,0.804,0.8062,0.8076,0.8109,0.8132,0.8177,0.8193,0.8189,0.8262,0.8287,0.8338,0.8348,0.8364,0.8374,0.8364,0.8408,0.8412,0.8416,0.843,0.8436,0.8373,0.8373,0.8373,0.8373,0,0.7989,0.8022,0.8043,0.8087,0.8111,0.8144,0.817,0.8192,0.8203,0.8224,0.8268,0.8299,0.8339,0.8352,0.8363,0.8406,0.8403,0.8403,0.8396,0.842,0.8434,0.844,0.8373,0.8373,0.8373,0.8373,0,0,0.801,0.8066,0.8073,0.8094,0.8136,0.8163,0.8197,0.8236,0.8255,0.8287,0.8317,0.8366,0.8367,0.839,0.8405,0.8427,0.8458,0.8426,0.8427,0.8431,0.8508,0.8508,0.8514,0.8463,0.8464,0.8465,0.8506,0,0.8043,0.8104,0.8124,0.8174,0.8206,0.8221,0.8251,0.8281,0.8301,0.8331,0.8354,0.8389,0.8387,0.8401,0.8424,0.8449,0.8474,0.8446,0.8493,0.8494,0.8484,0.8522,0.8521,0.8558,0.8511,0.8512,0.8513,0,0.8089,0.8121,0.8175,0.8215,0.8229,0.8255,0.8294,0.8322,0.8357,0.8371,0.8398,0.8411,0.8449,0.8439,0.8492,0.8473,0.8494,0.8509,0.8511,0.8517,0.8505,0.8529,0.857,0.8576,0.8522,0.8521,0.852,0,0.81,0.8157,0.8198,0.8215,0.8262,0.828,0.8301,0.8335,0.8358,0.8392,0.8407,0.8445,0.8466,0.8496,0.852,0.851,0.8572,0.8564,0.8585,0.8584,0.8597,0.8596,0.8643,0.8609,0.8609,0.8609,0.8609,0,0.8135,0.8168,0.8204,0.8228,0.8266,0.829,0.8327,0.8348,0.8379,0.8409,0.8424,0.8453,0.8482,0.8514,0.8533,0.8576,0.8585,0.8597,0.8602,0.8597,0.8595,0.8611,0.8609,0.861,0.861,0.861,0.8609,0,0.8155,0.818,0.8225,0.8266,0.8277,0.8303,0.8339,0.8365,0.8385,0.8424,0.8434,0.8468,0.8507,0.8533,0.8584,0.8597,0.8643,0.8647,0.8631,0.8634,0.8654,0.8652,0.8713,0.8723,0.8681,0.8681,0.8681,0,0.8175,0.8201,0.8245,0.8266,0.8287,0.8321,0.8344,0.8369,0.8393,0.8436,0.8456,0.8497,0.853,0.8593,0.8622,0.8661,0.8667,0.8685,0.8673,0.8667,0.8669,0.8667,0.867,0.8687,0.8688,0.8688,0.8688,0,0.821,0.8222,0.8254,0.8292,0.832,0.8351,0.8382,0.8399,0.8429,0.8456,0.8496,0.8522,0.8574,0.8615,0.8657,0.8679,0.869,0.8692,0.8699,0.8694,0.8684,0.8691,0.8638,0.8691,0.869,0.869,0.869,0.869,0.8232,0.8256,0.8291,0.8328,0.8354,0.8383,0.841,0.8434,0.8468,0.8512,0.8524,0.8567,0.8603,0.8661,0.8684,0.8719,0.8717,0.8727,0.873,0.8732,0.8733,0.8678,0.8726,0.8726,0.8726,0.8726,0.8726,0,0.8268,0.8292,0.8326,0.8369,0.8398,0.8405,0.844,0.8465,0.8502,0.8534,0.8567,0.8614,0.8654,0.8687,0.8728,0.875,0.8756,0.876,0.8759,0.8764,0.8731,0.8721,0.8755,0.8755,0.8755,0.8755,0.8754,0.8754,0.8291,0.8333,0.8349,0.8404,0.8428,0.8469,0.8489,0.8517,0.8543,0.8595,0.8628,0.8649,0.8682,0.8726,0.8764,0.8773,0.8788,0.8791,0.8801,0.877,0.8766,0.8763,0.8754,0.8794,0.8794,0.8832,0.8832,0.8832]},{"header":{"parameterUnit":"m.s-1","parameterCategory":1,"la1":30.2991,"la2":30.254,"lo1":-89.0895,"lo2":-89.0444,"dy":0.0017,"dx":0.0017,"nx":28,"ny":28,"refTime":"2024-03-09T03:00:00:Z","depth":0,"parameterNumber":3,"parameterNumberName":"V-component_of_WINDS"},"data":[0,0,0,0,0,0,0,0,0,0,0,0,0,0,0,0,0,0,0,0,0,0,0,0,0,0,0,0,0,0,0,0,0,0,0,0,0,0,0,0,0,0,0,0,0,0,0,0,0,0,0,0,0,0,0,0,0,0,-3.2759,-3.2759,0,-3.2794,-3.2795,-3.2795,-3.2845,-3.2846,-3.2847,-3.2848,-3.288,-3.288,-3.288,0,0,0,0,0,0,0,0,0,0,0,0,0,-3.2732,-3.2732,-3.2759,-3.2759,-3.276,-3.2794,-3.2795,-3.2795,-3.2845,-3.2846,-3.2847,-3.2848,-3.288,-3.288,-3.288,0,0,0,0,0,0,0,0,0,0,0,0,0,-3.2753,-3.2732,-3.2759,-3.2789,-3.2792,-3.2794,-3.2795,-3.2795,-3.2845,-3.2846,-3.2848,-3.2849,-3.288,-3.288,-3.288,-3.2854,0,0,-3.288,-3.288,0,0,0,0,0,0,0,0,-3.2752,-3.2754,-3.2784,-3.2787,-3.279,-3.2817,-3.2797,-3.2815,-3.2845,-3.2825,-3.2848,-3.285,-3.2857,-3.2859,-3.2863,-3.2855,-3.2856,-3.288,-3.288,-3.288,-3.288,0,0,0,0,0,0,0,-3.275,-3.2753,-3.2773,-3.2784,-3.2788,-3.28,-3.2804,-3.2801,-3.2833,-3.2827,-3.283,-3.2834,-3.2859,-3.2863,-3.2864,-3.2857,-3.288,-3.288,-3.288,-3.288,-3.2833,-3.2831,0,0,0,0,0,0,-3.2745,-3.2751,-3.2772,-3.2774,-3.2774,-3.2799,-3.2804,-3.2807,-3.2833,-3.2839,-3.2833,-3.2836,-3.2862,-3.2864,-3.2865,-3.2839,-3.288,-3.288,-3.288,-3.2834,-3.2832,-3.2831,0,0,0,0,0,0,-3.2744,-3.2746,-3.277,-3.2764,-3.2768,-3.2799,-3.2801,-3.2807,-3.2811,-3.2838,-3.2844,-3.2831,-3.2863,-3.2865,-3.2857,-3.284,-3.288,-3.288,-3.2835,-3.2833,-3.2832,-3.2783,0,0,0,0,0,0,-3.2743,-3.2745,-3.2736,-3.2763,-3.2768,-3.2762,-3.28,-3.2807,-3.2811,-3.2816,-3.2838,-3.2842,-3.2864,-3.2857,-3.2857,-3.2841,-3.288,-3.2837,-3.2835,-3.2832,-3.2786,-3.278,-3.2774,0,0,0,0,0,-3.2742,-3.2719,-3.2735,-3.2737,-3.2757,-3.2761,-3.2763,-3.279,-3.2809,-3.28,-3.2819,-3.2842,-3.2842,-3.2856,-3.2856,-3.284,-3.2838,-3.2835,-3.2832,-3.2789,-3.2781,-3.2774,0,0,0,0,0,0,-3.2687,-3.2723,-3.2741,-3.2727,-3.2741,-3.2769,-3.2758,-3.278,-3.2787,-3.2791,-3.2824,-3.2828,-3.2816,-3.2827,-3.2842,-3.2818,-3.2844,-3.2841,-3.2811,-3.2803,-3.2797,-3.2795,-3.288,0,0,0,0,0,-3.2674,-3.2675,-3.2706,-3.269,-3.2697,-3.2726,-3.2729,-3.2749,-3.2764,-3.2769,-3.2787,-3.2799,-3.2803,-3.2803,-3.2808,-3.2789,-3.2795,-3.2778,-3.2772,-3.2767,-3.2764,-3.2757,-3.275,-3.2822,-3.2822,-3.2822,0,0,-3.2645,-3.2665,-3.2663,-3.268,-3.2693,-3.2693,-3.273,-3.2728,-3.2729,-3.2768,-3.2763,-3.2776,-3.2792,-3.2779,-3.2774,-3.2788,-3.2746,-3.2763,-3.2759,-3.2759,-3.2753,-3.2746,-3.274,-3.282,-3.282,-3.282,0,0,-3.2593,-3.2608,-3.2598,-3.2612,-3.2632,-3.2652,-3.265,-3.2676,-3.2687,-3.2683,-3.2713,-3.2714,-3.2718,-3.2729,-3.2735,-3.2692,-3.2714,-3.2693,-3.266,-3.2653,-3.2648,-3.2643,-3.2628,-3.2623,-3.269,-3.269,-3.2689,0,-3.2555,-3.2557,-3.259,-3.2587,-3.2594,-3.2633,-3.2623,-3.2634,-3.2653,-3.2657,-3.2673,-3.2682,-3.2695,-3.2686,-3.2676,-3.2679,-3.2678,-3.269,-3.2646,-3.2642,-3.2638,-3.2624,-3.2619,-3.2687,-3.2687,-3.2687,-3.2688,0,-3.251,-3.2511,-3.2501,-3.2522,-3.2528,-3.2521,-3.2552,-3.2554,-3.2575,-3.2594,-3.259,-3.2608,-3.2618,-3.2617,-3.2636,-3.2612,-3.262,-3.264,-3.2667,-3.2628,-3.2616,-3.2611,-3.2683,-3.2684,-3.2685,-3.2685,0,0,-3.2421,-3.2464,-3.2459,-3.2471,-3.2498,-3.2499,-3.2495,-3.2508,-3.2509,-3.2522,-3.252,-3.2525,-3.2545,-3.2552,-3.2573,-3.2566,-3.2533,-3.2588,-3.2589,-3.2578,-3.251,-3.2494,-3.2488,-3.2549,-3.2548,-3.2547,-3.2509,0,-3.2375,-3.2372,-3.2403,-3.2391,-3.2394,-3.2433,-3.243,-3.2446,-3.2464,-3.2469,-3.2488,-3.2492,-3.2518,-3.2523,-3.2518,-3.2538,-3.252,-3.2541,-3.2546,-3.2546,-3.2541,-3.2481,-3.2464,-3.2427,-3.2504,-3.2503,-3.2503,0,-3.232,-3.2334,-3.2323,-3.2354,-3.2356,-3.2353,-3.2368,-3.2372,-3.2391,-3.2405,-3.2415,-3.244,-3.2439,-3.2465,-3.2464,-3.2478,-3.2482,-3.2493,-3.2492,-3.2493,-3.2522,-3.2481,-3.2416,-3.241,-3.2495,-3.2496,-3.2497,0,-3.2258,-3.2273,-3.227,-3.2278,-3.2314,-3.2311,-3.2325,-3.2347,-3.2353,-3.2366,-3.2371,-3.2382,-3.2388,-3.2397,-3.2425,-3.2441,-3.2421,-3.2449,-3.2432,-3.2431,-3.2425,-3.2425,-3.236,-3.2428,-3.2428,-3.2428,-3.2428,0,-3.2203,-3.2195,-3.2243,-3.2241,-3.2234,-3.227,-3.2261,-3.2279,-3.2299,-3.2301,-3.2334,-3.2335,-3.2372,-3.2377,-3.2399,-3.2395,-3.2397,-3.2408,-3.2414,-3.2405,-3.2404,-3.2408,-3.2411,-3.2426,-3.2427,-3.2427,-3.2427,0,-3.2132,-3.2164,-3.2163,-3.2198,-3.2207,-3.22,-3.223,-3.2229,-3.2251,-3.2253,-3.2256,-3.2289,-3.2298,-3.2327,-3.2341,-3.2356,-3.2345,-3.2356,-3.2339,-3.2343,-3.2325,-3.2326,-3.226,-3.2253,-3.2325,-3.2324,-3.2323,0,-3.2094,-3.209,-3.2126,-3.2131,-3.2145,-3.2151,-3.2159,-3.2195,-3.2202,-3.2226,-3.2223,-3.2234,-3.2245,-3.2256,-3.2281,-3.2293,-3.2305,-3.2281,-3.2307,-3.2299,-3.2306,-3.2306,-3.2306,-3.2275,-3.2274,-3.2273,-3.2273,0,-3.2025,-3.2042,-3.2053,-3.207,-3.208,-3.2094,-3.211,-3.2112,-3.2152,-3.2158,-3.2168,-3.2177,-3.2194,-3.2205,-3.2222,-3.2236,-3.2261,-3.2265,-3.2262,-3.2252,-3.2243,-3.2249,-3.2324,-3.2266,-3.2266,-3.2267,-3.2267,-3.2267,-3.197,-3.1969,-3.1996,-3.2007,-3.2024,-3.204,-3.2042,-3.2066,-3.2076,-3.2094,-3.2114,-3.2122,-3.2145,-3.217,-3.2183,-3.219,-3.2203,-3.2198,-3.2197,-3.2195,-3.2191,-3.2243,-3.2192,-3.2193,-3.2193,-3.2193,-3.2193,0,-3.1903,-3.1923,-3.1934,-3.1958,-3.1968,-3.1993,-3.2014,-3.202,-3.2027,-3.2047,-3.2059,-3.2071,-3.2083,-3.2111,-3.2126,-3.2126,-3.2138,-3.2128,-3.2128,-3.2132,-3.2178,-3.218,-3.2118,-3.2118,-3.2118,-3.2119,-3.2119,-3.2119,-3.187,-3.187,-3.1891,-3.1901,-3.192,-3.193,-3.194,-3.1955,-3.1972,-3.1985,-3.1996,-3.2015,-3.2039,-3.2056,-3.2068,-3.2076,-3.208,-3.2067,-3.2078,-3.2121,-3.2128,-3.2135,-3.2137,-3.2067,-3.2067,-3.2032,-3.2031,-3.2031]}]]